Weather History for Bad Axe, MI

Change the Weather History Date:

Monday, February 18, 2013

  Actual Average (KP58) Record (KP58)
Temperature  
Mean Temperature 21 °F -  
Max Temperature 39 °F 30 °F 50 °F (1997)
Min Temperature 3 °F 19 °F 6 °F (2006)
Degree Days  
Heating Degree Days 44    
Moisture  
Dew Point 16 °F    
Average Humidity 68    
Maximum Humidity 86    
Minimum Humidity 55    
Precipitation  
Precipitation 0.00 in - - ()
Sea Level Pressure  
Sea Level Pressure 29.92 in    
Wind  
Wind Speed 10 mph (SSE)    
Max Wind Speed 24 mph    
Max Gust Speed 31 mph    
Visibility 10 miles    
Events Rain    
Averages and records for this station are not official NWS values.
T = Trace of Precipitation, MM = Missing Value Source: NWS Daily Summary

Daily Weather History Graph

Daily Weather History Graph

Search for Another Location

Airport:

Trip Planner

Search our weather history database for the weather conditions in past years. The results will help you decide how hot, cold, wet, or windy it might be!

Date:

Astronomy

Feb. 18, 2013 Rise Set
Actual Time 7:25 AM EST 6:06 PM EST
Civil Twilight 6:56 AM EST 6:35 PM EST
Nautical Twilight 6:23 AM EST 7:09 PM EST
Astronomical Twilight 5:49 AM EST 7:42 PM EST
Moon 11:45 AM EST (2/18) 2:09 AM EST (2/18)
Length of Visible Light 11h 39m
Length of Day
10h 40m
First Quarter, 58% of the Moon is Illuminated
Feb 18
First Quarter
Feb 25
Full
Mar 4
Last Quarter
Mar 11
New
Mar 19
First Quarter

Hourly Weather History & Observations

Time (EST) Temp. Windchill Dew Point Humidity Pressure Visibility Wind Dir Wind Speed Gust Speed Precip Events Conditions
12:13 AM 3.2 °F -4.2 °F -0.2 °F 86% 30.17 in 10.0 mi South 3.5 mph - N/A   Clear
12:34 AM 6.3 °F -0.7 °F 1.2 °F 80% 30.17 in 10.0 mi SSE 3.5 mph - N/A   Clear
12:54 AM 6.8 °F - 1.6 °F 79% 30.17 in 10.0 mi Calm Calm - N/A   Clear
1:13 AM 7.2 °F 0.3 °F 1.8 °F 79% 30.18 in 10.0 mi SSE 3.5 mph - N/A   Clear
1:34 AM 9.5 °F 1.2 °F 3.2 °F 76% 30.18 in 10.0 mi South 4.6 mph - N/A   Clear
1:54 AM 11.3 °F -0.4 °F 4.1 °F 73% 30.18 in 10.0 mi South 8.1 mph - N/A   Clear
2:13 AM 12.2 °F -0.2 °F 4.5 °F 71% 30.18 in 10.0 mi South 9.2 mph - N/A   Clear
2:34 AM 13.1 °F 2.8 °F 4.8 °F 70% 30.17 in 10.0 mi SSE 6.9 mph - N/A   Clear
2:54 AM 13.1 °F 0.1 °F 4.8 °F 70% 30.17 in 10.0 mi South 10.4 mph - N/A   Clear
3:13 AM 13.6 °F 2.5 °F 4.8 °F 68% 30.17 in 10.0 mi South 8.1 mph - N/A   Clear
3:34 AM 14.0 °F 2.0 °F 5.5 °F 69% 30.16 in 10.0 mi South 9.2 mph - N/A   Clear
3:54 AM 14.2 °F -0.6 °F 5.5 °F 69% 30.16 in 10.0 mi South 13.8 mph - N/A   Clear
4:14 AM 14.2 °F 2.2 °F 5.4 °F 68% 30.16 in 10.0 mi SSE 9.2 mph - N/A   Scattered Clouds
4:34 AM 14.4 °F 2.4 °F 5.7 °F 69% 30.15 in 10.0 mi South 9.2 mph - N/A   Scattered Clouds
4:54 AM 14.5 °F 2.7 °F 5.9 °F 69% 30.15 in 10.0 mi South 9.2 mph - N/A   Scattered Clouds
5:14 AM 14.9 °F 3.1 °F 5.9 °F 68% 30.14 in 10.0 mi SSE 9.2 mph - N/A   Scattered Clouds
5:34 AM 15.4 °F 2.3 °F 6.1 °F 67% 30.13 in 10.0 mi South 11.5 mph - N/A   Scattered Clouds
5:53 AM 16.2 °F 3.9 °F 6.6 °F 66% 30.12 in 10.0 mi SSE 10.4 mph - N/A   Scattered Clouds
6:14 AM 16.3 °F 5.7 °F 7.3 °F 68% 30.11 in 10.0 mi SSE 8.1 mph - N/A   Mostly Cloudy
6:34 AM 16.7 °F 4.5 °F 7.7 °F 68% 30.10 in 10.0 mi SSE 10.4 mph - N/A   Mostly Cloudy
6:53 AM 16.7 °F 3.8 °F 7.9 °F 68% 30.10 in 10.0 mi South 11.5 mph - N/A   Scattered Clouds
7:14 AM 17.1 °F 5.0 °F 8.2 °F 68% 30.09 in 10.0 mi SSE 10.4 mph - N/A   Scattered Clouds
7:34 AM 17.4 °F 7.1 °F 8.6 °F 68% 30.07 in 10.0 mi SSE 8.1 mph - N/A   Scattered Clouds
7:54 AM 17.6 °F 6.4 °F 8.6 °F 68% 30.07 in 10.0 mi SSE 9.2 mph - N/A   Clear
8:14 AM 18.5 °F 6.8 °F 9.7 °F 68% 30.06 in 10.0 mi SSE 10.4 mph 16.1 mph N/A   Mostly Cloudy
8:33 AM 19.4 °F 6.6 °F 10.6 °F 69% 30.05 in 10.0 mi SSE 12.7 mph 19.6 mph N/A   Overcast
9:14 AM 20.7 °F 5.7 °F 12.0 °F 69% 30.03 in 10.0 mi SSE 18.4 mph 23.0 mph N/A   Overcast
9:34 AM 21.2 °F 7.3 °F 12.6 °F 69% 30.01 in 10.0 mi SSE 16.1 mph 20.7 mph N/A   Overcast
9:54 AM 22.1 °F 8.5 °F 13.6 °F 70% 30.00 in 10.0 mi SSE 16.1 mph 24.2 mph N/A   Overcast
10:14 AM 23.5 °F 9.9 °F 14.2 °F 67% 30.00 in 10.0 mi SSE 17.3 mph 24.2 mph N/A   Overcast
10:34 AM 25.5 °F 11.6 °F 14.9 °F 64% 29.99 in 10.0 mi SSE 19.6 mph 24.2 mph N/A   Overcast
10:54 AM 26.4 °F 15.5 °F 14.0 °F 59% 29.98 in 10.0 mi SSE 12.7 mph 18.4 mph N/A   Scattered Clouds
11:14 AM 26.8 °F 14.1 °F 14.4 °F 60% 29.97 in 10.0 mi SSE 17.3 mph 25.3 mph N/A   Clear
11:34 AM 27.5 °F 16.3 °F 14.4 °F 58% 29.95 in 10.0 mi SSE 13.8 mph 21.9 mph N/A   Clear
11:54 AM 28.2 °F 15.9 °F 14.7 °F 57% 29.94 in 10.0 mi SSE 17.3 mph 25.3 mph N/A   Clear
12:14 PM 29.3 °F 17.7 °F 14.9 °F 55% 29.92 in 10.0 mi SE 16.1 mph 23.0 mph N/A   Clear
12:34 PM 30.2 °F 18.5 °F 15.8 °F 55% 29.90 in 10.0 mi SSE 17.3 mph 24.2 mph N/A   Clear
12:54 PM 30.9 °F 19.1 °F 16.5 °F 55% 29.89 in 10.0 mi SSE 18.4 mph 26.5 mph N/A   Clear
1:14 PM 31.1 °F 20.1 °F 16.5 °F 55% 29.88 in 10.0 mi SSE 16.1 mph 23.0 mph N/A   Clear
1:34 PM 31.1 °F 18.9 °F 17.4 °F 57% 29.87 in 10.0 mi SSE 19.6 mph 28.8 mph N/A   Clear
1:54 PM 31.6 °F 20.4 °F 19.0 °F 60% 29.86 in 10.0 mi SSE 17.3 mph 28.8 mph N/A   Clear
2:14 PM 31.6 °F 18.4 °F 20.8 °F 64% 29.85 in 10.0 mi South 24.2 mph 31.1 mph N/A   Clear
2:34 PM 31.3 °F 17.9 °F 20.7 °F 65% 29.84 in 10.0 mi South 24.2 mph 28.8 mph N/A   Clear
2:54 PM 31.1 °F 18.3 °F 21.0 °F 66% 29.83 in 10.0 mi South 21.9 mph 27.6 mph N/A   Clear
3:14 PM 31.5 °F 19.4 °F 21.4 °F 66% 29.82 in 10.0 mi South 19.6 mph 29.9 mph N/A   Clear
3:34 PM 31.5 °F 20.9 °F 21.0 °F 65% 29.81 in 10.0 mi SSE 15.0 mph 24.2 mph N/A   Clear
3:54 PM 31.8 °F 20.2 °F 21.2 °F 65% 29.81 in 10.0 mi SSE 18.4 mph 23.0 mph N/A   Clear
4:14 PM 32.0 °F 22.1 °F 21.4 °F 65% 29.81 in 10.0 mi SSE 13.8 mph 21.9 mph N/A   Clear
4:34 PM 31.3 °F 21.1 °F 21.0 °F 66% 29.79 in 10.0 mi SSE 13.8 mph 23.0 mph N/A   Clear
4:54 PM 31.1 °F 20.9 °F 20.8 °F 66% 29.77 in 10.0 mi SSE 13.8 mph 20.7 mph N/A   Clear
5:15 PM 31.5 °F 21.4 °F 21.4 °F 66% 29.77 in 10.0 mi SSE 13.8 mph 19.6 mph N/A   Clear
5:34 PM 31.6 °F 23.1 °F 21.9 °F 67% 29.77 in 10.0 mi SSE 10.4 mph 18.4 mph N/A   Clear
5:54 PM 31.3 °F 23.3 °F 21.7 °F 68% 29.76 in 10.0 mi SSE 9.2 mph - N/A   Clear
6:15 PM 31.3 °F 22.1 °F 21.9 °F 68% 29.76 in 10.0 mi SSE 11.5 mph 16.1 mph N/A   Clear
6:34 PM 31.6 °F 22.1 °F 22.5 °F 69% 29.76 in 10.0 mi SSE 12.7 mph - N/A   Clear
6:54 PM 32.0 °F 23.6 °F 23.0 °F 69% 29.75 in 10.0 mi SSE 10.4 mph 16.1 mph N/A   Mostly Cloudy
7:15 PM 32.2 °F 23.2 °F 23.9 °F 72% 29.75 in 10.0 mi SSE 11.5 mph - N/A   Overcast
7:34 PM 32.7 °F 23.9 °F 24.4 °F 72% 29.74 in 10.0 mi SSE 11.5 mph 18.4 mph N/A   Overcast
7:54 PM 33.8 °F 25.3 °F 24.8 °F 70% 29.73 in 10.0 mi SSE 11.5 mph 18.4 mph N/A   Overcast
8:15 PM 34.2 °F 25.7 °F 25.7 °F 71% 29.72 in 10.0 mi SE 11.5 mph 18.4 mph N/A   Overcast
8:34 PM 34.9 °F 25.3 °F 26.6 °F 72% 29.71 in 10.0 mi SSE 15.0 mph 20.7 mph N/A   Overcast
8:54 PM 35.1 °F 27.4 °F 27.0 °F 72% 29.69 in 10.0 mi SSE 10.4 mph 16.1 mph N/A   Overcast
9:15 PM 35.6 °F 27.5 °F 27.9 °F 73% 29.68 in 10.0 mi SSE 11.5 mph 17.3 mph N/A   Overcast
9:34 PM 36.0 °F 27.5 °F 28.2 °F 73% 29.67 in 10.0 mi SSE 12.7 mph 18.4 mph N/A   Overcast
9:54 PM 36.1 °F 28.7 °F 28.4 °F 73% 29.65 in 10.0 mi SSE 10.4 mph 17.3 mph N/A   Overcast
10:14 PM 36.9 °F 29.1 °F 29.3 °F 74% 29.64 in 10.0 mi SSE 11.5 mph 17.3 mph N/A   Overcast
10:34 PM 37.8 °F 30.2 °F 30.2 °F 74% 29.63 in 10.0 mi SSE 11.5 mph 16.1 mph N/A   Overcast
10:54 PM 38.7 °F 30.9 °F 30.6 °F 73% 29.62 in 10.0 mi SSE 12.7 mph - N/A   Overcast
11:13 PM 38.7 °F 31.8 °F 31.1 °F 74% 29.61 in 10.0 mi SSE 10.4 mph 18.4 mph N/A   Overcast
11:34 PM 39.2 °F 30.8 °F 31.3 °F 73% 29.60 in 10.0 mi SSE 15.0 mph 20.7 mph N/A Rain Light Rain
11:54 PM 39.4 °F 31.4 °F 31.8 °F 74% 29.58 in 10.0 mi SSE 13.8 mph 19.6 mph N/A   Light Drizzle